START_TIME,STEP,MOV.,M6,t_acc.,M7,t_acc.,M19,t_acc.,H36,t_acc.
1979-07-04 15:00:27.890 ,1,0,0.,12.0,0.,12.0,0.,12.0,0.,12.0
1979-07-04 15:00:39.890 ,1,0,0.,12.0,0.,12.0,0.,12.0,0.,12.0
1979-07-04 15:00:51.890 ,2,1,0.,12.0,0.,12.0,0.,12.0,0.,12.0
1979-07-04 15:01:03.890 ,2,1,0.,12.0,0.,12.0,0.,12.0,0.,12.0
1979-07-04 15:01:15.890 ,2,0,0.,12.0,0.,12.0,0.,12.0,0.,12.0
1979-07-04 15:01:27.890 ,2,0,0.,12.0,0.,12.0,0.,12.0,0.,12.0
1979-07-04 15:01:39.890 ,3,1,0.,12.0,0.,12.0,0.,12.0,0.,12.0
1979-07-04 15:01:51.890 ,3,1,0.,12.0,0.,12.0,0.,12.0,0.,12.0
1979-07-04 15:02:03.890 ,3,0,0.,12.0,0.,12.0,0.,12.0,0.,12.0
1979-07-04 15:02:15.890 ,3,0,0.,12.0,0.,12.0,0.,12.0,0.,12.0
1979-07-04 15:02:27.890 ,4,1,0.,12.0,0.,12.0,0.,12.0,0.,12.0
1979-07-04 15:02:39.890 ,4,1,0.,12.0,0.,12.0,0.,12.0,0.,12.0
1979-07-04 15:02:51.890 ,4,0,0.,12.0,0.,12.0,0.,12.0,0.,12.0
1979-07-04 15:03:03.890 ,4,0,0.,12.0,0.,12.0,0.,12.0,0.,12.0
1979-07-04 15:03:15.890 ,5,1,0.,12.0,0.,12.0,0.,12.0,0.,12.0
1979-07-04 15:03:27.890 ,5,1,0.,12.0,0.,12.0,0.,12.0,0.,12.0
1979-07-04 15:03:39.890 ,5,0,0.,12.0,0.,12.0,0.,12.0,0.,12.0
1979-07-04 15:03:51.890 ,5,0,0.,12.0,0.,12.0,0.,12.0,0.,12.0
1979-07-04 15:04:03.890 ,6,1,0.,12.0,0.,12.0,0.,12.0,0.,12.0
1979-07-04 15:04:15.890 ,6,1,0.,12.0,0.,12.0,0.,12.0,0.,12.0
1979-07-04 15:04:27.890 ,6,0,0.,12.0,0.,12.0,0.,12.0,0.,12.0
1979-07-04 15:04:39.890 ,6,0,0.,12.0,0.,12.0,0.,12.0,0.,12.0
1979-07-04 15:04:51.890 ,7,1,0.,12.0,0.,12.0,0.,12.0,0.,12.0
1979-07-04 15:05:03.890 ,7,1,0.,12.0,0.,12.0,0.,12.0,0.,12.0
1979-07-04 15:05:15.890 ,7,0,0.,12.0,0.,12.0,0.,12.0,0.,12.0
1979-07-04 15:05:27.890 ,7,0,0.,12.0,0.,12.0,0.,12.0,0.,12.0
1979-07-04 15:05:39.890 ,7,1,0.,12.0,0.,12.0,0.,12.0,0.,12.0
1979-07-04 15:05:51.890 ,7,1,0.,12.0,0.,12.0,0.,12.0,0.,12.0
1979-07-04 15:06:03.890 ,7,0,0.,12.0,0.,12.0,0.,12.0,0.,12.0
1979-07-04 15:06:15.890 ,7,0,0.,12.0,0.,12.0,0.,12.0,0.,12.0
1979-07-04 15:06:27.890 ,6,1,0.,12.0,0.,12.0,0.,12.0,0.,12.0
1979-07-04 15:06:39.890 ,6,1,0.,12.0,0.,12.0,0.,12.0,0.,12.0
1979-07-04 15:06:51.890 ,6,0,0.,12.0,0.,12.0,0.,12.0,0.,12.0
1979-07-04 15:07:03.890 ,6,0,0.,12.0,0.,12.0,0.,12.0,0.,12.0
1979-07-04 15:07:15.890 ,5,1,0.,12.0,0.,12.0,0.,12.0,0.,12.0
1979-07-04 15:07:27.890 ,5,1,0.,12.0,0.,12.0,0.,12.0,0.,12.0
1979-07-04 15:07:39.890 ,5,0,0.,12.0,0.,12.0,0.,12.0,0.,12.0
1979-07-04 15:07:51.890 ,5,0,0.,12.0,0.,12.0,0.,12.0,0.,12.0
1979-07-04 15:08:03.890 ,4,1,0.,12.0,0.,12.0,0.,12.0,0.,12.0
1979-07-04 15:08:15.890 ,4,1,0.,12.0,0.,12.0,0.,12.0,0.,12.0
1979-07-04 15:08:27.890 ,4,0,0.,12.0,0.,12.0,0.,12.0,0.,12.0
1979-07-04 15:08:39.890 ,4,0,0.,12.0,0.,12.0,0.,12.0,0.,12.0
1979-07-04 15:08:51.890 ,3,1,0.,12.0,0.,12.0,0.,12.0,0.,12.0
1979-07-04 15:09:03.890 ,3,1,0.,12.0,0.,12.0,0.,12.0,0.,12.0
1979-07-04 15:09:15.890 ,3,0,0.,12.0,0.,12.0,0.,12.0,0.,12.0
1979-07-04 15:09:27.890 ,3,0,0.,12.0,0.,12.0,0.,12.0,0.,12.0
1979-07-04 15:09:39.890 ,2,1,0.,12.0,0.,12.0,0.,12.0,0.,12.0
1979-07-04 15:09:51.890 ,2,1,0.,12.0,0.,12.0,0.,12.0,0.,12.0
1979-07-04 15:10:03.890 ,2,0,0.,12.0,0.,12.0,0.,12.0,0.,12.0
1979-07-04 15:10:15.890 ,2,0,0.,12.0,0.,12.0,0.,12.0,0.,12.0
1979-07-04 15:10:27.890 ,1,1,0.,12.0,0.,12.0,0.,12.0,0.,12.0
1979-07-04 15:10:39.890 ,1,1,0.,12.0,0.,12.0,0.,12.0,0.,12.0
1979-07-04 15:10:51.890 ,1,0,0.,12.0,0.,12.0,0.,12.0,0.,12.0
1979-07-04 15:11:03.890 ,1,0,0.,12.0,0.,12.0,0.,12.0,0.,12.0
1979-07-04 15:11:15.890 ,0,1,0.,12.0,0.,12.0,0.,12.0,0.,12.0
1979-07-04 15:11:27.890 ,0,1,0.,12.0,0.,12.0,0.,12.0,0.,12.0
1979-07-04 15:11:39.890 ,0,0,0.,12.0,0.,12.0,0.,12.0,0.,12.0
1979-07-04 15:11:51.890 ,0,0,0.,12.0,0.,12.0,0.,12.0,0.,12.0
1979-07-04 15:12:03.890 ,0,1,0.,12.0,0.,12.0,0.,12.0,0.,12.0
1979-07-04 15:12:15.890 ,0,1,0.,12.0,0.,12.0,0.,12.0,0.,12.0
1979-07-04 15:12:27.890 ,0,0,0.,12.0,0.,12.0,0.,12.0,0.,12.0
1979-07-04 15:12:39.890 ,0,0,0.,12.0,0.,12.0,0.,12.0,0.,12.0
1979-07-04 15:12:51.890 ,1,1,0.,12.0,0.,12.0,0.,12.0,0.,12.0
1979-07-04 15:13:03.890 ,1,1,0.,12.0,0.,12.0,0.,12.0,0.,12.0
1979-07-04 15:13:15.890 ,1,0,0.,12.0,0.,12.0,0.,12.0,0.,12.0
1979-07-04 15:13:27.890 ,1,0,0.,12.0,0.,12.0,0.,12.0,0.,12.0
1979-07-04 15:13:39.890 ,2,1,0.,12.0,0.,12.0,0.,12.0,0.,12.0
1979-07-04 15:13:51.890 ,2,1,0.,12.0,0.,12.0,0.,12.0,0.,12.0
1979-07-04 15:14:03.890 ,2,0,0.,12.0,0.,12.0,0.,12.0,0.,12.0
1979-07-04 15:14:15.890 ,2,0,0.,12.0,0.,12.0,0.,12.0,0.,12.0
1979-07-04 15:14:27.890 ,3,1,0.,12.0,0.,12.0,0.,12.0,0.,12.0
1979-07-04 15:14:39.890 ,3,1,0.,12.0,0.,12.0,0.,12.0,0.,12.0
1979-07-04 15:14:51.890 ,3,0,0.,12.0,0.,12.0,0.,12.0,0.,12.0
1979-07-04 15:15:03.890 ,3,0,0.,12.0,0.,12.0,0.,12.0,0.,12.0
1979-07-04 15:15:15.890 ,4,1,0.,12.0,0.,12.0,0.,12.0,0.,12.0
1979-07-04 15:15:27.890 ,4,1,0.,12.0,0.,12.0,0.,12.0,0.,12.0
1979-07-04 15:15:39.890 ,4,0,0.,12.0,0.,12.0,0.,12.0,0.,12.0
1979-07-04 15:15:51.890 ,4,0,0.,12.0,0.,12.0,0.,12.0,0.,12.0
1979-07-04 15:16:03.890 ,5,1,0.,12.0,0.,12.0,0.,12.0,0.,12.0
1979-07-04 15:16:15.890 ,5,1,0.,12.0,0.,12.0,0.,12.0,0.,12.0
1979-07-04 15:16:27.890 ,5,0,0.,12.0,0.,12.0,0.,12.0,0.,12.0
1979-07-04 15:16:39.890 ,5,0,0.,12.0,0.,12.0,0.,12.0,0.,12.0
1979-07-04 15:16:51.890 ,6,1,0.,12.0,0.,12.0,0.,12.0,0.,12.0
1979-07-04 15:17:03.890 ,6,1,0.,12.0,0.,12.0,0.,12.0,0.,12.0
1979-07-04 15:17:15.890 ,6,0,0.,12.0,0.,12.0,0.,12.0,0.,12.0
1979-07-04 15:17:27.890 ,6,0,0.,12.0,0.,12.0,0.,12.0,0.,12.0
1979-07-04 15:17:39.890 ,7,1,0.,12.0,0.,12.0,0.,12.0,0.,12.0
1979-07-04 15:17:51.890 ,7,1,0.,12.0,0.,12.0,0.,12.0,0.,12.0
1979-07-04 15:18:03.890 ,7,0,0.,12.0,0.,12.0,0.,12.0,0.,12.0
1979-07-04 15:18:15.890 ,7,0,0.,12.0,0.,12.0,0.,12.0,0.,12.0
1979-07-04 15:18:27.890 ,7,1,0.,12.0,0.,12.0,0.,12.0,0.,12.0
1979-07-04 15:18:39.890 ,7,1,0.,12.0,0.,12.0,0.,12.0,0.,12.0
1979-07-04 15:18:51.890 ,7,0,0.,12.0,0.,12.0,0.,12.0,0.,12.0
1979-07-04 15:19:03.890 ,7,0,0.,12.0,0.,12.0,0.,12.0,0.,12.0
1979-07-04 15:19:15.890 ,6,1,0.,12.0,0.,12.0,0.,12.0,0.,12.0
1979-07-04 15:19:27.890 ,6,1,0.,12.0,0.,12.0,0.,12.0,0.,12.0
1979-07-04 15:19:39.890 ,6,0,0.,12.0,0.,12.0,0.,12.0,0.,12.0
1979-07-04 15:19:51.890 ,6,0,0.,12.0,0.,12.0,0.,12.0,0.,12.0
1979-07-04 15:20:03.890 ,5,1,0.,12.0,0.,12.0,0.,12.0,0.,12.0
1979-07-04 15:20:15.890 ,5,1,0.,12.0,0.,12.0,0.,12.0,0.,12.0
1979-07-04 15:20:27.890 ,5,0,0.,12.0,0.,12.0,0.,12.0,0.,12.0
1979-07-04 15:20:39.890 ,5,0,0.,12.0,0.,12.0,0.,12.0,0.,12.0
1979-07-04 15:20:51.890 ,4,1,0.,12.0,0.,12.0,0.,12.0,0.,12.0
1979-07-04 15:21:03.890 ,4,1,0.,12.0,0.,12.0,0.,12.0,0.,12.0
1979-07-04 15:21:15.890 ,4,0,0.,12.0,0.,12.0,0.,12.0,0.,12.0
1979-07-04 15:21:27.890 ,4,0,0.,12.0,0.,12.0,0.,12.0,0.,12.0
1979-07-04 15:21:39.890 ,3,1,0.,12.0,0.,12.0,0.,12.0,0.,12.0
1979-07-04 15:21:51.890 ,3,1,0.,12.0,0.,12.0,0.,12.0,0.,12.0
1979-07-04 15:22:03.890 ,3,0,0.,12.0,0.,12.0,0.,12.0,0.,12.0
1979-07-04 15:22:15.890 ,3,0,0.,12.0,0.,12.0,0.,12.0,0.,12.0
1979-07-04 15:22:27.890 ,2,1,0.,12.0,0.,12.0,0.,12.0,0.,12.0
1979-07-04 15:22:39.890 ,2,1,0.,12.0,0.,12.0,0.,12.0,0.,12.0
1979-07-04 15:22:51.890 ,2,0,0.,12.0,0.,12.0,0.,12.0,0.,12.0
1979-07-04 15:23:03.890 ,2,0,0.,12.0,0.,12.0,0.,12.0,0.,12.0
1979-07-04 15:23:15.890 ,1,1,0.,12.0,0.,12.0,0.,12.0,0.,12.0
1979-07-04 15:23:27.890 ,1,1,0.,12.0,0.,12.0,0.,12.0,0.,12.0
1979-07-04 15:23:39.890 ,1,0,0.,12.0,0.,12.0,0.,12.0,0.,12.0
1979-07-04 15:23:51.890 ,1,0,0.,12.0,0.,12.0,0.,12.0,0.,12.0
1979-07-04 15:24:03.890 ,0,1,0.,12.0,0.,12.0,0.,12.0,0.,12.0
1979-07-04 15:24:15.890 ,0,1,0.,12.0,0.,12.0,0.,12.0,0.,12.0
1979-07-04 15:24:27.890 ,0,0,0.,12.0,0.,12.0,0.,12.0,0.,12.0
1979-07-04 15:24:39.890 ,0,0,0.,12.0,0.,12.0,0.,12.0,0.,12.0
1979-07-04 15:24:51.890 ,0,1,0.,12.0,0.,12.0,0.,12.0,0.,12.0
1979-07-04 15:25:03.890 ,0,1,0.,12.0,0.,12.0,0.,12.0,0.,12.0
1979-07-04 15:25:15.890 ,0,0,0.,12.0,0.,12.0,0.,12.0,0.,12.0
1979-07-04 15:25:27.890 ,0,0,0.,12.0,0.,12.0,0.,12.0,0.,12.0
1979-07-04 15:25:39.890 ,1,1,0.,12.0,0.,12.0,0.,12.0,0.,12.0
1979-07-04 15:25:51.890 ,1,1,0.,12.0,0.,12.0,0.,12.0,0.,12.0
1979-07-04 15:26:03.890 ,1,0,0.,12.0,0.,12.0,0.,12.0,0.,12.0
1979-07-04 15:26:15.890 ,1,0,0.,12.0,0.,12.0,0.,12.0,0.,12.0
1979-07-04 15:26:27.890 ,2,1,0.,12.0,0.,12.0,0.,12.0,0.,12.0
1979-07-04 15:26:39.890 ,2,1,0.,12.0,0.,12.0,0.,12.0,0.,12.0
1979-07-04 15:26:51.890 ,2,0,0.,12.0,0.,12.0,0.,12.0,0.,12.0
1979-07-04 15:27:03.890 ,2,0,0.,12.0,0.,12.0,0.,12.0,0.,12.0
1979-07-04 15:27:15.890 ,3,1,0.,12.0,0.,12.0,0.,12.0,0.,12.0
1979-07-04 15:27:27.890 ,3,1,0.,12.0,0.,12.0,0.,12.0,0.,12.0
1979-07-04 15:27:39.890 ,3,0,0.,12.0,0.,12.0,0.,12.0,0.,12.0
1979-07-04 15:27:51.890 ,3,0,0.,12.0,0.,12.0,0.,12.0,0.,12.0
1979-07-04 15:28:03.890 ,4,1,0.,12.0,0.,12.0,0.,12.0,0.,12.0
1979-07-04 15:28:15.890 ,4,1,0.,12.0,0.,12.0,0.,12.0,0.,12.0
1979-07-04 15:28:27.890 ,4,0,0.,12.0,0.,12.0,0.,12.0,0.,12.0
1979-07-04 15:28:39.890 ,4,0,0.,12.0,0.,12.0,0.,12.0,0.,12.0
1979-07-04 15:28:51.890 ,5,1,0.,12.0,0.,12.0,0.,12.0,0.,12.0
1979-07-04 15:29:03.890 ,5,1,0.,12.0,0.,12.0,0.,12.0,0.,12.0
1979-07-04 15:29:15.890 ,5,0,0.,12.0,0.,12.0,0.,12.0,0.,12.0
1979-07-04 15:29:27.890 ,5,0,0.,12.0,0.,12.0,0.,12.0,0.,12.0
1979-07-04 15:29:39.890 ,6,1,0.,12.0,0.,12.0,0.,12.0,0.,12.0
1979-07-04 15:29:51.890 ,6,1,0.,12.0,0.,12.0,0.,12.0,0.,12.0
1979-07-04 15:30:03.890 ,6,0,0.,12.0,0.,12.0,0.,12.0,1.,12.0
1979-07-04 15:30:15.890 ,6,0,0.,12.0,0.,12.0,0.,12.0,0.,12.0
1979-07-04 15:30:27.890 ,7,0,0.,12.0,0.,12.0,0.,12.0,0.,12.0
1979-07-04 15:30:39.890 ,7,0,0.,12.0,0.,12.0,0.,12.0,0.,12.0
1979-07-04 15:30:51.890 ,7,0,0.,12.0,0.,12.0,0.,12.0,0.,12.0
1979-07-04 15:31:03.890 ,7,0,0.,12.0,0.,12.0,0.,12.0,0.,12.0
1979-07-04 15:31:15.890 ,4,1,0.,12.0,0.,12.0,0.,12.0,0.,12.0
1979-07-04 15:31:27.890 ,4,1,0.,12.0,0.,12.0,0.,12.0,0.,12.0
1979-07-04 15:31:39.890 ,0,1,0.,12.0,0.,12.0,0.,12.0,0.,12.0
1979-07-04 15:31:51.890 ,0,1,0.,12.0,0.,12.0,0.,12.0,0.,12.0
1979-07-04 15:32:03.890 ,3,1,0.,12.0,0.,12.0,0.,12.0,0.,12.0
1979-07-04 15:32:15.890 ,3,1,0.,12.0,0.,12.0,0.,12.0,0.,12.0
1979-07-04 15:32:27.890 ,7,1,0.,12.0,0.,12.0,0.,12.0,0.,12.0
1979-07-04 15:32:39.890 ,7,1,0.,12.0,0.,12.0,0.,12.0,0.,12.0
1979-07-04 15:32:51.890 ,4,1,0.,12.0,0.,12.0,0.,12.0,0.,12.0
1979-07-04 15:33:03.890 ,4,1,0.,12.0,0.,12.0,0.,12.0,0.,12.0
1979-07-04 15:33:15.890 ,0,1,0.,12.0,0.,12.0,0.,12.0,0.,12.0
1979-07-04 15:33:27.890 ,0,1,0.,12.0,0.,12.0,0.,12.0,0.,12.0
1979-07-04 15:33:39.890 ,3,1,0.,12.0,0.,12.0,0.,12.0,0.,12.0
1979-07-04 15:33:51.890 ,3,1,0.,12.0,0.,12.0,0.,12.0,0.,12.0
1979-07-04 15:34:03.890 ,7,1,0.,12.0,0.,12.0,0.,12.0,0.,12.0
1979-07-04 15:34:15.890 ,7,1,0.,12.0,0.,12.0,0.,12.0,0.,12.0
1979-07-04 15:34:27.890 ,4,1,0.,12.0,0.,12.0,0.,12.0,0.,12.0
1979-07-04 15:34:39.890 ,4,1,0.,12.0,0.,12.0,0.,12.0,1.,12.0
1979-07-04 15:34:51.890 ,0,1,0.,12.0,0.,12.0,0.,12.0,0.,12.0
1979-07-04 15:35:03.890 ,0,1,0.,12.0,0.,12.0,0.,12.0,0.,12.0
1979-07-04 15:35:15.890 ,3,1,0.,12.0,0.,12.0,0.,12.0,0.,12.0
1979-07-04 15:35:27.890 ,3,1,0.,12.0,0.,12.0,0.,12.0,0.,12.0
1979-07-04 15:35:39.890 ,7,1,0.,12.0,0.,12.0,0.,12.0,0.,12.0
1979-07-04 15:35:51.890 ,7,1,0.,12.0,0.,12.0,0.,12.0,0.,12.0
1979-07-04 15:36:03.890 ,4,1,0.,12.0,0.,12.0,0.,12.0,0.,12.0
1979-07-04 15:36:15.890 ,4,1,0.,12.0,0.,12.0,0.,12.0,0.,12.0
1979-07-04 15:36:27.890 ,0,1,0.,12.0,0.,12.0,0.,12.0,0.,12.0
1979-07-04 15:36:39.890 ,0,1,0.,12.0,0.,12.0,0.,12.0,0.,12.0
1979-07-04 15:36:51.890 ,3,1,0.,12.0,0.,12.0,0.,12.0,0.,12.0
1979-07-04 15:37:03.890 ,3,1,0.,12.0,0.,12.0,0.,12.0,0.,12.0
1979-07-04 15:37:15.890 ,7,1,0.,12.0,0.,12.0,0.,12.0,0.,12.0
1979-07-04 15:37:27.890 ,7,1,0.,12.0,0.,12.0,0.,12.0,0.,12.0
1979-07-04 15:37:39.890 ,4,1,0.,12.0,0.,12.0,0.,12.0,0.,12.0
1979-07-04 15:37:51.890 ,4,1,0.,12.0,0.,12.0,0.,12.0,0.,12.0
1979-07-04 15:38:03.890 ,0,1,0.,12.0,0.,12.0,0.,12.0,0.,12.0
1979-07-04 15:38:15.890 ,0,1,0.,12.0,0.,12.0,0.,12.0,0.,12.0
1979-07-04 15:38:27.890 ,3,1,0.,12.0,0.,12.0,0.,12.0,0.,12.0
1979-07-04 15:38:39.890 ,3,1,0.,12.0,0.,12.0,0.,12.0,0.,12.0
1979-07-04 15:38:51.890 ,7,1,0.,12.0,0.,12.0,0.,12.0,0.,12.0
1979-07-04 15:39:03.890 ,7,1,0.,12.0,0.,12.0,0.,12.0,0.,12.0
1979-07-04 15:39:15.890 ,4,1,0.,12.0,0.,12.0,0.,12.0,0.,12.0
1979-07-04 15:39:27.890 ,4,1,0.,12.0,0.,12.0,0.,12.0,0.,12.0
1979-07-04 15:39:39.890 ,0,1,0.,12.0,0.,12.0,0.,12.0,0.,12.0
1979-07-04 15:39:51.890 ,0,1,0.,12.0,0.,12.0,0.,12.0,0.,12.0
1979-07-04 15:40:03.890 ,3,1,0.,12.0,0.,12.0,0.,12.0,0.,12.0
1979-07-04 15:40:15.890 ,3,1,0.,12.0,0.,12.0,0.,12.0,0.,12.0
1979-07-04 15:40:27.890 ,7,1,0.,12.0,0.,12.0,0.,12.0,0.,12.0
1979-07-04 15:40:39.890 ,7,1,0.,12.0,0.,12.0,0.,12.0,0.,12.0
1979-07-04 15:40:51.890 ,4,1,0.,12.0,0.,12.0,0.,12.0,0.,12.0
1979-07-04 15:41:03.890 ,4,1,0.,12.0,0.,12.0,0.,12.0,0.,12.0
1979-07-04 15:41:15.890 ,0,0,0.,12.0,0.,12.0,0.,12.0,0.,12.0
1979-07-04 15:41:27.890 ,0,0,0.,12.0,0.,12.0,0.,12.0,0.,12.0
1979-07-04 15:41:45.290 ,0,0,,0,,0,,0,,0
1979-07-04 15:41:57.290 ,0,0,0.,12.0,0.,12.0,0.,12.0,0.,12.0
1979-07-04 15:42:03.890 ,0,0,0.,12.0,0.,12.0,0.,12.0,0.,12.0
1979-07-04 15:42:15.890 ,0,0,0.,12.0,0.,12.0,0.,12.0,0.,12.0
1979-07-04 15:42:27.890 ,5,1,0.,12.0,0.,12.0,0.,12.0,0.,12.0
1979-07-04 15:42:39.890 ,5,1,0.,12.0,0.,12.0,0.,12.0,0.,12.0
1979-07-04 15:42:51.890 ,5,0,0.,12.0,0.,12.0,0.,12.0,0.,12.0
1979-07-04 15:43:03.890 ,5,0,0.,12.0,0.,12.0,0.,12.0,0.,12.0
1979-07-04 15:43:15.890 ,4,1,0.,12.0,0.,12.0,0.,12.0,0.,12.0
1979-07-04 15:43:27.890 ,4,1,0.,12.0,0.,12.0,0.,12.0,0.,12.0
1979-07-04 15:43:39.890 ,4,0,0.,12.0,0.,12.0,0.,12.0,0.,12.0
1979-07-04 15:43:51.890 ,4,0,0.,12.0,0.,12.0,0.,12.0,0.,12.0
1979-07-04 15:44:03.890 ,3,1,0.,12.0,0.,12.0,0.,12.0,0.,12.0
1979-07-04 15:44:15.890 ,3,1,0.,12.0,0.,12.0,0.,12.0,0.,12.0
1979-07-04 15:44:27.890 ,3,0,0.,12.0,0.,12.0,0.,12.0,0.,12.0
1979-07-04 15:44:39.890 ,3,0,0.,12.0,0.,12.0,0.,12.0,0.,12.0
1979-07-04 15:44:51.890 ,2,1,0.,12.0,0.,12.0,0.,12.0,0.,12.0
1979-07-04 15:45:03.890 ,2,1,0.,12.0,0.,12.0,0.,12.0,0.,12.0
1979-07-04 15:45:15.890 ,2,0,0.,12.0,0.,12.0,0.,12.0,0.,12.0
1979-07-04 15:45:27.890 ,2,0,0.,12.0,0.,12.0,0.,12.0,0.,12.0
1979-07-04 15:45:39.890 ,1,1,0.,12.0,0.,12.0,0.,12.0,0.,12.0
1979-07-04 15:45:51.890 ,1,1,0.,12.0,0.,12.0,0.,12.0,0.,12.0
1979-07-04 15:46:03.890 ,1,0,0.,12.0,0.,12.0,0.,12.0,0.,12.0
1979-07-04 15:46:15.890 ,1,0,0.,12.0,0.,12.0,0.,12.0,0.,12.0
1979-07-04 15:46:27.890 ,0,1,0.,12.0,0.,12.0,0.,12.0,0.,12.0
1979-07-04 15:46:39.890 ,0,1,0.,12.0,0.,12.0,0.,12.0,0.,12.0
1979-07-04 15:46:51.890 ,0,0,0.,12.0,0.,12.0,0.,12.0,0.,12.0
1979-07-04 15:47:03.890 ,0,0,0.,12.0,0.,12.0,0.,12.0,0.,12.0
1979-07-04 15:47:15.890 ,0,1,0.,12.0,0.,12.0,0.,12.0,0.,12.0
1979-07-04 15:47:27.890 ,0,1,0.,12.0,0.,12.0,0.,12.0,0.,12.0
1979-07-04 15:47:39.890 ,0,0,0.,12.0,0.,12.0,0.,12.0,0.,12.0
1979-07-04 15:47:51.890 ,0,0,0.,12.0,0.,12.0,0.,12.0,0.,12.0
1979-07-04 15:48:03.890 ,1,1,0.,12.0,0.,12.0,0.,12.0,0.,12.0
1979-07-04 15:48:15.890 ,1,1,0.,12.0,0.,12.0,0.,12.0,0.,12.0
1979-07-04 15:48:27.890 ,1,0,0.,12.0,0.,12.0,0.,12.0,0.,12.0
1979-07-04 15:48:39.890 ,1,0,0.,12.0,0.,12.0,0.,12.0,0.,12.0
1979-07-04 15:48:51.890 ,2,1,0.,12.0,0.,12.0,0.,12.0,0.,12.0
1979-07-04 15:49:03.890 ,2,1,0.,12.0,0.,12.0,0.,12.0,0.,12.0
1979-07-04 15:49:15.890 ,2,0,0.,12.0,0.,12.0,0.,12.0,0.,12.0
1979-07-04 15:49:27.890 ,2,0,0.,12.0,0.,12.0,0.,12.0,0.,12.0
1979-07-04 15:49:39.890 ,3,1,0.,12.0,0.,12.0,0.,12.0,0.,12.0
1979-07-04 15:49:51.890 ,3,1,0.,12.0,0.,12.0,0.,12.0,0.,12.0
1979-07-04 15:50:03.890 ,3,0,0.,12.0,0.,12.0,0.,12.0,0.,12.0
1979-07-04 15:50:15.890 ,3,0,0.,12.0,0.,12.0,0.,12.0,0.,12.0
1979-07-04 15:50:27.890 ,4,1,0.,12.0,0.,12.0,0.,12.0,0.,12.0
1979-07-04 15:50:39.890 ,4,1,0.,12.0,0.,12.0,0.,12.0,0.,12.0
1979-07-04 15:50:51.890 ,4,0,0.,12.0,0.,12.0,0.,12.0,0.,12.0
1979-07-04 15:51:03.890 ,4,0,0.,12.0,0.,12.0,0.,12.0,0.,12.0
1979-07-04 15:51:15.890 ,5,1,0.,12.0,0.,12.0,0.,12.0,0.,12.0
1979-07-04 15:51:27.890 ,5,1,0.,12.0,0.,12.0,0.,12.0,0.,12.0
1979-07-04 15:51:39.890 ,5,0,0.,12.0,0.,12.0,0.,12.0,0.,12.0
1979-07-04 15:51:51.890 ,5,0,0.,12.0,0.,12.0,0.,12.0,0.,12.0
1979-07-04 15:52:03.890 ,6,1,0.,12.0,0.,12.0,0.,12.0,1.,12.0
1979-07-04 15:52:15.890 ,6,1,0.,12.0,0.,12.0,0.,12.0,0.,12.0
1979-07-04 15:52:27.890 ,6,0,0.,12.0,0.,12.0,0.,12.0,0.,12.0
1979-07-04 15:52:39.890 ,6,0,0.,12.0,0.,12.0,0.,12.0,0.,12.0
1979-07-04 15:52:51.890 ,7,1,0.,12.0,0.,12.0,0.,12.0,0.,12.0
1979-07-04 15:53:03.890 ,7,1,0.,12.0,0.,12.0,0.,12.0,0.,12.0
1979-07-04 15:53:15.890 ,7,0,0.,12.0,0.,12.0,0.,12.0,0.,12.0
1979-07-04 15:53:27.890 ,7,0,0.,12.0,0.,12.0,0.,12.0,0.,12.0
1979-07-04 15:53:39.890 ,7,1,0.,12.0,0.,12.0,0.,12.0,0.,12.0
1979-07-04 15:53:51.890 ,7,1,0.,12.0,0.,12.0,0.,12.0,0.,12.0
1979-07-04 15:54:03.890 ,7,0,0.,12.0,0.,12.0,0.,12.0,0.,12.0
1979-07-04 15:54:15.890 ,7,0,0.,12.0,0.,12.0,0.,12.0,0.,12.0
1979-07-04 15:54:27.890 ,6,1,0.,12.0,0.,12.0,0.,12.0,0.,12.0
1979-07-04 15:54:39.890 ,6,1,0.,12.0,0.,12.0,0.,12.0,0.,12.0
1979-07-04 15:54:51.890 ,6,0,0.,12.0,0.,12.0,0.,12.0,0.,12.0
1979-07-04 15:55:03.890 ,6,0,0.,12.0,0.,12.0,0.,12.0,0.,12.0
1979-07-04 15:55:15.890 ,5,1,0.,12.0,0.,12.0,0.,12.0,0.,12.0
1979-07-04 15:55:27.890 ,5,1,0.,12.0,0.,12.0,0.,12.0,0.,12.0
1979-07-04 15:55:39.890 ,5,0,0.,12.0,0.,12.0,0.,12.0,0.,12.0
1979-07-04 15:55:51.890 ,5,0,0.,12.0,0.,12.0,0.,12.0,0.,12.0
1979-07-04 15:56:03.890 ,4,1,0.,12.0,0.,12.0,0.,12.0,0.,12.0
1979-07-04 15:56:15.890 ,4,1,0.,12.0,0.,12.0,0.,12.0,0.,12.0
1979-07-04 15:56:27.890 ,4,0,0.,12.0,0.,12.0,0.,12.0,0.,12.0
1979-07-04 15:56:39.890 ,4,0,0.,12.0,0.,12.0,0.,12.0,0.,12.0
1979-07-04 15:56:51.890 ,3,1,0.,12.0,0.,12.0,0.,12.0,0.,12.0
1979-07-04 15:57:03.890 ,3,1,0.,12.0,0.,12.0,0.,12.0,0.,12.0
1979-07-04 15:57:15.890 ,3,0,0.,12.0,0.,12.0,0.,12.0,0.,12.0
1979-07-04 15:57:27.890 ,3,0,0.,12.0,0.,12.0,0.,12.0,0.,12.0
1979-07-04 15:57:39.890 ,2,1,0.,12.0,0.,12.0,0.,12.0,0.,12.0
1979-07-04 15:57:51.890 ,2,1,0.,12.0,0.,12.0,0.,12.0,0.,12.0
1979-07-04 15:58:03.890 ,2,0,0.,12.0,0.,12.0,0.,12.0,0.,12.0
1979-07-04 15:58:15.890 ,2,0,0.,12.0,0.,12.0,0.,12.0,0.,12.0
1979-07-04 15:58:27.890 ,1,1,0.,12.0,0.,12.0,0.,12.0,0.,12.0
1979-07-04 15:58:39.890 ,1,1,0.,12.0,0.,12.0,0.,12.0,0.,12.0
1979-07-04 15:58:51.890 ,1,0,0.,12.0,0.,12.0,0.,12.0,0.,12.0
1979-07-04 15:59:03.890 ,1,0,0.,12.0,0.,12.0,0.,12.0,0.,12.0
1979-07-04 15:59:15.890 ,0,1,0.,12.0,0.,12.0,0.,12.0,0.,12.0
1979-07-04 15:59:27.890 ,0,1,0.,12.0,0.,12.0,0.,12.0,0.,12.0
1979-07-04 15:59:39.890 ,0,0,0.,12.0,0.,12.0,0.,12.0,0.,12.0
1979-07-04 15:59:51.890 ,0,0,0.,12.0,0.,12.0,0.,12.0,0.,12.0
1979-07-04 16:00:03.890 ,0,1,0.,12.0,0.,12.0,0.,12.0,0.,12.0
1979-07-04 16:00:15.890 ,0,1,0.,12.0,0.,12.0,0.,12.0,0.,12.0
1979-07-04 16:00:27.890 ,0,0,0.,12.0,0.,12.0,0.,12.0,0.,12.0
1979-07-04 16:00:39.890 ,0,0,0.,12.0,0.,12.0,0.,12.0,0.,12.0
1979-07-04 16:00:51.890 ,1,1,0.,12.0,0.,12.0,0.,12.0,0.,12.0
1979-07-04 16:01:03.890 ,1,1,0.,12.0,0.,12.0,0.,12.0,0.,12.0
1979-07-04 16:01:15.890 ,1,0,0.,12.0,0.,12.0,0.,12.0,0.,12.0
1979-07-04 16:01:27.890 ,1,0,0.,12.0,0.,12.0,0.,12.0,0.,12.0
1979-07-04 16:01:39.890 ,2,1,0.,12.0,0.,12.0,0.,12.0,0.,12.0
1979-07-04 16:01:51.890 ,2,1,0.,12.0,0.,12.0,0.,12.0,0.,12.0
1979-07-04 16:02:03.890 ,2,0,0.,12.0,0.,12.0,0.,12.0,0.,12.0
1979-07-04 16:02:15.890 ,2,0,0.,12.0,0.,12.0,0.,12.0,0.,12.0
1979-07-04 16:02:27.890 ,3,1,0.,12.0,0.,12.0,0.,12.0,0.,12.0
1979-07-04 16:02:39.890 ,3,1,0.,12.0,0.,12.0,0.,12.0,0.,12.0
1979-07-04 16:02:51.890 ,3,0,0.,12.0,0.,12.0,0.,12.0,0.,12.0
1979-07-04 16:03:03.890 ,3,0,0.,12.0,0.,12.0,0.,12.0,0.,12.0
1979-07-04 16:03:15.890 ,4,1,0.,12.0,0.,12.0,0.,12.0,0.,12.0
1979-07-04 16:03:27.890 ,4,1,0.,12.0,0.,12.0,0.,12.0,0.,12.0
1979-07-04 16:03:39.890 ,0,0,0.,12.0,0.,12.0,0.,12.0,0.,12.0
1979-07-04 16:03:51.890 ,0,0,0.,12.0,0.,12.0,0.,12.0,0.,12.0
1979-07-04 16:04:02.090 ,0,0,,0,,0,,0,,0
1979-07-04 16:04:14.090 ,0,0,,0,,0,,0,,0
1979-07-04 16:04:03.890 ,5,1,0.,12.0,0.,12.0,0.,12.0,1.,12.0
1979-07-04 16:04:15.890 ,5,1,0.,12.0,0.,12.0,0.,12.0,0.,12.0
1979-07-04 16:04:27.890 ,5,0,0.,12.0,0.,12.0,0.,12.0,0.,12.0
1979-07-04 16:04:39.890 ,5,0,0.,12.0,0.,12.0,0.,12.0,0.,12.0
1979-07-04 16:04:51.890 ,6,1,0.,12.0,0.,12.0,0.,12.0,1.,12.0
1979-07-04 16:05:03.890 ,6,1,0.,12.0,0.,12.0,0.,12.0,0.,12.0
1979-07-04 16:05:15.890 ,6,0,0.,12.0,0.,12.0,0.,12.0,0.,12.0
1979-07-04 16:05:27.890 ,6,0,0.,12.0,0.,12.0,0.,12.0,0.,12.0
1979-07-04 16:05:39.890 ,7,1,0.,12.0,0.,12.0,0.,12.0,0.,12.0
1979-07-04 16:05:51.890 ,7,1,0.,12.0,0.,12.0,0.,12.0,0.,12.0
1979-07-04 16:06:03.890 ,0,0,0.,12.0,0.,12.0,0.,12.0,0.,12.0
1979-07-04 16:06:15.890 ,0,0,0.,12.0,0.,12.0,0.,12.0,0.,12.0
1979-07-04 16:06:29.690 ,7,1,0.,12.0,0.,12.0,0.,12.0,0.,12.0
1979-07-04 16:06:41.690 ,7,1,0.,12.0,0.,12.0,0.,12.0,0.,12.0
1979-07-04 16:06:51.890 ,7,0,0.,12.0,0.,12.0,0.,12.0,0.,12.0
1979-07-04 16:07:03.890 ,7,0,0.,12.0,0.,12.0,0.,12.0,0.,12.0
1979-07-04 16:07:15.890 ,6,1,0.,12.0,0.,12.0,0.,12.0,0.,12.0
1979-07-04 16:07:27.890 ,6,1,0.,12.0,0.,12.0,0.,12.0,0.,12.0
1979-07-04 16:07:39.890 ,6,0,0.,12.0,0.,12.0,0.,12.0,0.,12.0
1979-07-04 16:07:51.890 ,6,0,0.,12.0,0.,12.0,0.,12.0,0.,12.0
1979-07-04 16:08:03.890 ,5,1,0.,12.0,0.,12.0,0.,12.0,0.,12.0
1979-07-04 16:08:15.890 ,5,1,0.,12.0,0.,12.0,0.,12.0,0.,12.0
1979-07-04 16:08:27.890 ,5,0,0.,12.0,0.,12.0,0.,12.0,0.,12.0
1979-07-04 16:08:39.890 ,5,0,0.,12.0,0.,12.0,0.,12.0,0.,12.0
1979-07-04 16:08:51.890 ,4,1,0.,12.0,0.,12.0,0.,12.0,0.,12.0
1979-07-04 16:09:03.890 ,4,1,0.,12.0,0.,12.0,0.,12.0,0.,12.0
1979-07-04 16:09:15.890 ,4,0,0.,12.0,0.,12.0,0.,12.0,0.,12.0
1979-07-04 16:09:27.890 ,4,0,0.,12.0,0.,12.0,0.,12.0,0.,12.0
1979-07-04 16:09:39.890 ,3,1,0.,12.0,0.,12.0,0.,12.0,0.,12.0
1979-07-04 16:09:51.890 ,3,1,0.,12.0,0.,12.0,0.,12.0,0.,12.0
1979-07-04 16:10:03.890 ,3,0,0.,12.0,0.,12.0,0.,12.0,0.,12.0
1979-07-04 16:10:15.890 ,3,0,0.,12.0,0.,12.0,0.,12.0,0.,12.0
1979-07-04 16:10:27.890 ,2,1,0.,12.0,0.,12.0,0.,12.0,0.,12.0
1979-07-04 16:10:39.890 ,2,1,0.,12.0,0.,12.0,0.,12.0,0.,12.0
1979-07-04 16:10:51.890 ,2,0,0.,12.0,0.,12.0,0.,12.0,0.,12.0
1979-07-04 16:11:03.890 ,2,0,0.,12.0,0.,12.0,0.,12.0,0.,12.0
1979-07-04 16:11:15.890 ,1,1,0.,12.0,0.,12.0,0.,12.0,0.,12.0
1979-07-04 16:11:27.890 ,1,1,0.,12.0,0.,12.0,0.,12.0,0.,12.0
1979-07-04 16:11:39.890 ,1,0,0.,12.0,0.,12.0,0.,12.0,0.,12.0
1979-07-04 16:11:51.890 ,1,0,0.,12.0,0.,12.0,0.,12.0,0.,12.0
1979-07-04 16:12:03.890 ,0,1,0.,12.0,0.,12.0,0.,12.0,0.,12.0
1979-07-04 16:12:15.890 ,0,1,0.,12.0,0.,12.0,0.,12.0,0.,12.0
1979-07-04 16:12:27.890 ,0,0,0.,12.0,0.,12.0,0.,12.0,0.,12.0
1979-07-04 16:12:39.890 ,0,0,0.,12.0,0.,12.0,0.,12.0,0.,12.0
1979-07-04 16:12:51.890 ,0,1,0.,12.0,0.,12.0,0.,12.0,0.,12.0
1979-07-04 16:13:03.890 ,0,1,0.,12.0,0.,12.0,0.,12.0,0.,12.0
1979-07-04 16:13:15.890 ,0,0,0.,12.0,0.,12.0,0.,12.0,0.,12.0
1979-07-04 16:13:27.890 ,0,0,0.,12.0,0.,12.0,0.,12.0,0.,12.0
1979-07-04 16:13:39.890 ,1,1,0.,12.0,0.,12.0,0.,12.0,0.,12.0
1979-07-04 16:13:51.890 ,1,1,0.,12.0,0.,12.0,0.,12.0,0.,12.0
1979-07-04 16:14:03.890 ,1,0,0.,12.0,0.,12.0,0.,12.0,0.,12.0
1979-07-04 16:14:15.890 ,1,0,0.,12.0,0.,12.0,0.,12.0,0.,12.0
1979-07-04 16:14:27.890 ,2,1,0.,12.0,0.,12.0,0.,12.0,0.,12.0
1979-07-04 16:14:39.890 ,2,1,0.,12.0,0.,12.0,0.,12.0,0.,12.0
1979-07-04 16:14:51.890 ,2,0,0.,12.0,0.,12.0,0.,12.0,0.,12.0
1979-07-04 16:15:03.890 ,2,0,0.,12.0,0.,12.0,0.,12.0,0.,12.0
1979-07-04 16:15:15.890 ,3,1,0.,12.0,0.,12.0,0.,12.0,0.,12.0
1979-07-04 16:15:27.890 ,3,1,0.,12.0,0.,12.0,0.,12.0,0.,12.0
1979-07-04 16:15:39.890 ,3,0,0.,12.0,0.,12.0,0.,12.0,0.,12.0
1979-07-04 16:15:51.890 ,3,0,0.,12.0,0.,12.0,0.,12.0,0.,12.0
1979-07-04 16:16:03.890 ,4,1,0.,12.0,0.,12.0,0.,12.0,0.,12.0
1979-07-04 16:16:15.890 ,4,1,0.,12.0,0.,12.0,0.,12.0,0.,12.0
1979-07-04 16:16:27.890 ,4,0,0.,12.0,0.,12.0,0.,12.0,0.,12.0
1979-07-04 16:16:39.890 ,4,0,0.,12.0,0.,12.0,0.,12.0,0.,12.0
1979-07-04 16:16:51.890 ,5,1,0.,12.0,0.,12.0,0.,12.0,0.,12.0
1979-07-04 16:17:03.890 ,5,1,0.,12.0,0.,12.0,0.,12.0,0.,12.0
1979-07-04 16:17:15.890 ,5,0,0.,12.0,0.,12.0,0.,12.0,1.,12.0